Location: Castle
(40.7167°S, 175.9500°E)
Time: 21:54:57
(UTC+00:00)

Tiangong - Pass Details

Date: 17 October 2024
Orbit: 382 x 395 km, 41.5° (Epoch: 13 November)

Event Time Altitude Azimuth Distance (km) Brightness Sun altitude
Rises 07:06:56 0° 284° (WNW) 2,332 3.0 -5.9°
Reaches altitude 10° 07:09:01 10° 284° (WNW) 1,479 1.8 -6.3°
Maximum altitude 07:12:22 84° 12° (NNE) 422 -2.0 -6.9°
Drops below altitude 10° 07:15:46 10° 100° (E) 1,497 0.3 -7.5°
Enters shadow 07:16:16 - 100° (E) 1,695 0.6 -7.6°
